Change the Weather History Date:

Thursday, October 3, 2013

  Actual Average (KGHW) Record (KGHW)
Temperature  
Mean Temperature 51 °F -  
Max Temperature 52 °F 64 °F 84 °F (1953)
Min Temperature 50 °F 39 °F 19 °F (1989)
Degree Days  
Heating Degree Days 14    
Growing Degree Days 1 (Base 50)    
Moisture  
Dew Point 50 °F    
Average Humidity 94    
Maximum Humidity 98    
Minimum Humidity 90    
Precipitation  
Precipitation 0.34 in - - ()
Sea Level Pressure  
Sea Level Pressure 29.92 in    
Wind  
Wind Speed 9 mph (NNE)    
Max Wind Speed 14 mph    
Max Gust Speed 18 mph    
Visibility 9 miles    
Events Rain , Thunderstorm    
Averages and records for this station are not official NWS values.
T = Trace of Precipitation, MM = Missing Value Source: NWS Daily Summary

Daily Weather History Graph

Daily Weather History Graph

Search for Another Location

Airport or City:

Trip Planner

Search our weather history database for the weather conditions in past years. The results will help you decide how hot, cold, wet, or windy it might be!

Date:

Astronomy

Oct. 03, 2013 Rise Set
Actual Time 7:20 AM CDT 6:55 PM CDT
Civil Twilight 6:51 AM CDT 7:25 PM CDT
Nautical Twilight 6:16 AM CDT 7:59 PM CDT
Astronomical Twilight 5:41 AM CDT 8:34 PM CDT
Moon 5:52 AM CDT (10/3) 6:05 PM CDT (10/3)
Length of Visible Light 12h 33m
Length of Day
11h 34m
Waning Crescent, 2% of the Moon is Illuminated
Oct 3
Waning Crescent
Oct 4
New
Oct 11
First Quarter
Oct 18
Full
Oct 26
Last Quarter

Hourly Weather History & Observations

Time (CDT) Temp. Dew Point Humidity Pressure Visibility Wind Dir Wind Speed Gust Speed Precip Events Conditions
12:11 AM 51.4 °F 48.7 °F 90% 29.90 in 10.0 mi NE 8.1 mph - N/A   Scattered Clouds
12:31 AM 51.8 °F 49.1 °F 90% 29.91 in 10.0 mi NE 6.9 mph - N/A   Mostly Cloudy
12:51 AM 52.0 °F 49.1 °F 90% 29.90 in 10.0 mi NE 6.9 mph - N/A   Overcast
1:11 AM 51.8 °F 49.3 °F 91% 29.91 in 10.0 mi NNE 8.1 mph - N/A   Overcast
1:31 AM 51.8 °F 49.3 °F 91% 29.90 in 10.0 mi NNE 8.1 mph - N/A   Overcast
1:51 AM 51.8 °F 49.1 °F 90% 29.91 in 10.0 mi NNE 6.9 mph - N/A   Overcast
2:11 AM 51.8 °F 49.1 °F 90% 29.90 in 10.0 mi NE 5.8 mph - N/A   Overcast
2:31 AM 51.8 °F 49.1 °F 90% 29.90 in 10.0 mi NNE 8.1 mph - N/A   Overcast
2:51 AM 51.6 °F 49.5 °F 92% 29.90 in 10.0 mi NE 8.1 mph - N/A   Overcast
3:11 AM 51.8 °F 49.5 °F 92% 29.90 in 10.0 mi NE 8.1 mph - N/A   Overcast
3:31 AM 51.8 °F 49.5 °F 92% 29.90 in 10.0 mi NNE 5.8 mph - N/A   Overcast
3:51 AM 51.8 °F 49.6 °F 92% 29.90 in 10.0 mi NE 5.8 mph - N/A   Overcast
4:11 AM 51.6 °F 49.6 °F 93% 29.90 in 10.0 mi NNE 6.9 mph - N/A   Overcast
4:31 AM 51.1 °F 49.5 °F 94% 29.89 in 10.0 mi ENE 8.1 mph - N/A   Overcast
4:52 AM 51.3 °F 49.6 °F 94% 29.90 in 10.0 mi NNE 5.8 mph - N/A   Overcast
5:11 AM 51.3 °F 49.6 °F 94% 29.90 in 10.0 mi NNE 5.8 mph - N/A   Overcast
5:31 AM 51.1 °F 49.6 °F 95% 29.90 in 10.0 mi NE 5.8 mph - N/A   Overcast
5:51 AM 50.9 °F 49.5 °F 95% 29.90 in 10.0 mi NE 5.8 mph - N/A   Overcast
6:11 AM 50.9 °F 49.6 °F 95% 29.90 in 10.0 mi NE 5.8 mph - N/A   Overcast
6:31 AM 50.9 °F 49.5 °F 95% 29.90 in 10.0 mi NNE 6.9 mph - N/A   Overcast
6:51 AM 50.9 °F 49.5 °F 95% 29.91 in 10.0 mi NE 8.1 mph - N/A   Overcast
7:11 AM 50.7 °F 49.5 °F 95% 29.92 in 10.0 mi North 6.9 mph - N/A   Overcast
7:31 AM 50.5 °F 49.3 °F 95% 29.92 in 10.0 mi NE 10.4 mph - N/A   Overcast
7:51 AM 50.9 °F 49.5 °F 95% 29.92 in 10.0 mi NE 5.8 mph - N/A   Overcast
8:11 AM 50.9 °F 49.8 °F 96% 29.92 in 5.0 mi NE 8.1 mph - N/A   Overcast
8:31 AM 50.9 °F 50.0 °F 97% 29.92 in 2.5 mi NE 8.1 mph - N/A   Overcast
8:51 AM 50.9 °F 50.4 °F 98% 29.90 in 5.0 mi NNE 9.2 mph - N/A   Overcast
9:11 AM 51.1 °F 50.4 °F 97% 29.90 in 5.0 mi NE 11.5 mph 16.1 mph N/A   Overcast
9:31 AM 51.3 °F 50.5 °F 97% 29.91 in 5.0 mi NE 12.7 mph - N/A   Overcast
9:51 AM 51.4 °F 50.7 °F 97% 29.91 in 7.0 mi NNE 9.2 mph - N/A   Overcast
10:11 AM 51.8 °F 50.9 °F 97% 29.90 in 10.0 mi NNE 10.4 mph - N/A   Overcast
10:32 AM 52.0 °F 50.5 °F 95% 29.91 in 10.0 mi NNE 12.7 mph - N/A   Overcast
10:51 AM 51.8 °F 50.4 °F 95% 29.91 in 10.0 mi NNE 11.5 mph - N/A   Overcast
11:11 AM 51.8 °F 50.2 °F 94% 29.92 in 10.0 mi NNE 10.4 mph 17.3 mph N/A   Overcast
11:31 AM 51.8 °F 50.0 °F 94% 29.92 in 10.0 mi NNE 9.2 mph 16.1 mph N/A Thunderstorm Overcast
11:51 AM 51.8 °F 50.0 °F 94% 29.92 in 10.0 mi NNE 13.8 mph - N/A Rain , Thunderstorm Light Thunderstorms and Rain
12:11 PM 51.4 °F 50.0 °F 95% 29.91 in 4.0 mi NNE 11.5 mph - 0.03 in Rain Heavy Rain
12:31 PM 51.3 °F 50.0 °F 95% 29.92 in 5.0 mi NNE 6.9 mph - 0.08 in Rain Rain
12:51 PM 51.8 °F 50.2 °F 94% 29.92 in 10.0 mi NNE 9.2 mph - 0.09 in Rain Light Rain
1:11 PM 51.8 °F 50.2 °F 94% 29.92 in 7.0 mi NNE 9.2 mph - 0.02 in Rain Rain
1:31 PM 52.0 °F 50.5 °F 95% 29.92 in 7.0 mi North 9.2 mph - 0.03 in Rain Rain
1:51 PM 52.2 °F 50.9 °F 95% 29.90 in 7.0 mi NNE 11.5 mph - 0.04 in Rain Light Rain
2:11 PM 52.7 °F 51.1 °F 94% 29.91 in 10.0 mi ENE 12.7 mph - N/A   Drizzle
2:31 PM 52.7 °F 50.9 °F 94% 29.90 in 10.0 mi NNE 12.7 mph - N/A   Light Drizzle
2:51 PM 52.7 °F 50.9 °F 94% 29.90 in 10.0 mi NNE 11.5 mph - N/A Rain Light Rain
3:11 PM 52.7 °F 50.9 °F 94% 29.91 in 10.0 mi NNE 10.4 mph - N/A Rain Rain
3:31 PM 52.7 °F 51.1 °F 94% 29.92 in 10.0 mi NNE 10.4 mph - 0.01 in   Drizzle
3:51 PM 52.7 °F 51.3 °F 95% 29.91 in 10.0 mi NNE 9.2 mph - 0.01 in   Light Drizzle
4:11 PM 52.7 °F 51.3 °F 95% 29.91 in 10.0 mi NNE 9.2 mph - N/A Rain Light Rain
4:31 PM 52.7 °F 51.3 °F 95% 29.92 in 10.0 mi NNE 6.9 mph - N/A   Light Drizzle
4:51 PM 52.7 °F 51.4 °F 95% 29.92 in 10.0 mi NNE 6.9 mph - N/A   Drizzle
5:11 PM 52.7 °F 51.3 °F 95% 29.92 in 10.0 mi NNE 9.2 mph - 0.01 in   Drizzle
5:31 PM 52.7 °F 51.3 °F 95% 29.92 in 7.0 mi NNE 11.5 mph - 0.01 in   Drizzle
5:51 PM 52.7 °F 51.4 °F 95% 29.91 in 7.0 mi NE 9.2 mph - 0.01 in Rain Rain
6:11 PM 52.7 °F 51.4 °F 95% 29.91 in 10.0 mi NE 11.5 mph 17.3 mph N/A   Light Drizzle
6:31 PM 52.7 °F 51.1 °F 94% 29.92 in 10.0 mi NNE 10.4 mph 16.1 mph N/A   Light Drizzle
6:51 PM 52.7 °F 50.9 °F 94% 29.92 in 10.0 mi NNE 12.7 mph - 0.01 in   Drizzle
7:11 PM 52.7 °F 50.9 °F 94% 29.93 in 10.0 mi NNE 10.4 mph 16.1 mph N/A Rain Rain
7:31 PM 52.3 °F 50.9 °F 95% 29.94 in 5.0 mi North 9.2 mph - 0.04 in Rain Rain
7:51 PM 52.0 °F 50.9 °F 96% 29.95 in 10.0 mi NNE 9.2 mph - 0.07 in Rain Light Rain
8:11 PM 52.0 °F 50.9 °F 96% 29.96 in 5.0 mi NNE 11.5 mph - 0.04 in Rain Rain
8:31 PM 52.0 °F 50.9 °F 96% 29.96 in 10.0 mi NNE 11.5 mph - 0.06 in Rain Rain
8:51 PM 52.0 °F 50.9 °F 96% 29.96 in 7.0 mi NNE 12.7 mph 17.3 mph 0.09 in Rain Light Rain
9:12 PM 52.0 °F 50.9 °F 96% 29.97 in 10.0 mi NNE 12.7 mph - N/A   Drizzle
9:31 PM 52.0 °F 50.9 °F 96% 29.97 in 10.0 mi NNE 12.7 mph 17.3 mph 0.01 in Rain Light Rain
9:51 PM 52.0 °F 50.9 °F 96% 29.98 in 10.0 mi NNE 10.4 mph - 0.01 in Rain Light Rain
10:11 PM 52.0 °F 50.9 °F 96% 29.98 in 10.0 mi NNE 11.5 mph - N/A   Drizzle
10:31 PM 51.8 °F 50.4 °F 95% 30.00 in 10.0 mi NNE 12.7 mph 18.4 mph N/A   Overcast
11:31 PM 51.1 °F 50.2 °F 97% 30.01 in 5.0 mi NE 9.2 mph - 0.01 in   Light Drizzle
11:51 PM 50.9 °F 50.0 °F 97% 29.99 in 7.0 mi NE 10.4 mph - 0.01 in Rain Light Rain